sat.trackr.live / text

‹ back to catalog

ONEWEB-0403

NORAD 50483 · 2021-132Q

PAYLOAD ACTIVE UNKNOWN

§ Identity

Operator
Country
UK
Launch date
2021-12-27
Launch site
TYMSC
Launch vehicle
Mass (kg)
RCS (m²)

Purposes: comms

External: N2YO · Heavens-Above · Gunter

§ Orbital elements

Epoch: 2026-05-25T01:14:42.901152Z

Period
109.20 min
Inclination
87.9171°
Eccentricity
0.0001949
Mean motion
13.18686850 rev/d
Perigee alt
1,188.3 km
Apogee alt
1,191.2 km
Semi-major
7,567.9 km
B*
5.4998e-6
RAAN
340.0590°
Arg perigee
90.9264°
Mean anomaly
269.2091°
Rev number
21,854

§ Raw data

ONEWEB-04031 50483U 21132Q   26145.05188543  .00000015  00000+0  54998-5 0  99962 50483  87.9171 340.0590 0001949  90.9264 269.2091 13.18686850218544

JSON: /api/v1/satellites/50483 · /tle

For live sub-satellite position, see the globe view (requires WebGL).

§ Visibility from observer

Set your observer location to see the next 7 days of passes ≥ 10°. The values pass through the URL so the page stays shareable.

No JS? Fill the form by hand. The geolocation button needs JavaScript.